Date,TemperatureHighF,TemperatureAvgF,TemperatureLowF,DewpointHighF,DewpointAvgF,DewpointLowF,HumidityHigh,HumidityAvg,HumidityLow,PressureMaxIn,PressureMinIn,WindSpeedMaxMPH,WindSpeedAvgMPH,GustSpeedMaxMPH,PrecipitationSumIn
2013-2-1,17,14,11,16,13,10,100,96,87,30.08,29.79,52,23,56,0.00
2013-2-2,22,15,8,20,14,8,100,97,88,29.94,29.79,33,11,56,0.00
2013-2-3,26,16,9,23,15,9,100,93,75,29.84,29.70,36,14,55,0.00
2013-2-4,24,18,12,21,17,12,100,94,83,29.81,29.69,25,7,42,0.00
2013-2-5,28,21,10,25,19,10,100,93,85,29.84,29.55,39,14,65,0.00
2013-2-6,30,26,21,26,22,18,92,83,73,30.03,29.85,19,7,31,0.01
2013-2-7,31,28,26,30,26,22,98,92,83,29.98,29.65,23,9,35,0.11
2013-2-8,29,25,17,28,23,17,100,92,86,30.19,29.67,39,12,50,0.28
2013-2-9,33,22,11,26,19,11,100,90,69,30.23,29.96,17,8,28,0.19
2013-2-10,46,32,20,41,29,19,98,89,81,29.96,29.27,58,14,68,0.23
2013-2-11,42,33,29,38,30,24,92,86,80,29.72,29.25,75,35,86,0.00
2013-2-12,43,28,24,36,25,22,93,87,67,29.85,29.70,35,19,50,0.00
2013-2-13,35,30,25,31,27,22,90,87,83,29.71,29.50,25,11,36,0.00
2013-2-14,38,33,25,33,29,22,96,86,80,29.73,29.38,71,22,73,0.01
2013-2-15,25,23,20,22,19,14,94,86,67,29.95,29.73,27,12,39,0.00
2013-2-16,22,17,10,19,15,10,100,92,72,29.96,29.85,51,16,52,0.00
2013-2-17,25,14,6,19,11,6,100,89,64,30.03,29.89,22,9,37,0.00
2013-2-18,47,35,20,40,26,13,85,71,61,29.89,29.12,56,14,76,0.89
2013-2-19,37,22,15,34,20,14,100,94,84,29.83,29.13,86,16,95,0.02
2013-2-20,21,18,15,20,17,15,100,95,88,30.11,29.83,39,19,61,0.00
2013-2-21,25,21,19,22,19,17,96,93,86,30.16,29.91,27,9,38,0.00
2013-2-22,32,22,0,31,23,18,100,93,85,29.92,29.60,41,14,57,0.00
2013-2-23,30,28,25,26,23,21,86,80,75,29.69,29.59,43,25,62,0.00
2013-2-24,35,30,25,29,25,22,89,82,78,29.94,29.67,37,11,44,0.07
2013-2-25,45,30,20,32,24,19,98,80,54,30.00,29.83,12,7,25,0.00
2013-2-26,34,30,27,27,24,22,90,80,71,29.83,29.37,34,11,55,0.06
2013-2-27,35,32,31,33,31,29,100,95,84,29.42,29.28,18,5,29,0.40
2013-2-28,33,31,28,30,28,25,97,90,87,29.80,29.42,33,12,51,0.23